Weather in Gorin

Russia / Khabarovsk Krai     51°11′53″N   136°39′19″E
В апреле 2022 года жителям России запретили посещать сайт meteo.paraplan.net по решению Генеральной прокуратуры. Аудитория сайта уменьшилась в 10 раз. Владельцы сайта не видят смысла в поддержке погодного сервера в таких условиях. Сайт будет закрыт в октябре.
temp.,
°C
wind,
m/s
gust,
m/s
humid.,
%
clouds,
%
prec.,
mm/h
press.,
hPa
HPBL,
m
29 september, thu
thu2901:00+4wnw23815 0.0 101262
04:00+3w11792 0.0 101310
07:00+2wsw11810 0.0 101410
10:00+8w255548 0.0 1014541
13:00+12sw34394 0.0 10121516
16:00+12se234349 0.0 1010995
19:00+8se3974100 0.0 1009217
22:00+8se3671100 0.0 1009191
30 september, fri
fri3001:00+7se2379100 0.1 100797
04:00+7se1186100 0.2 100651
07:00+7sw118779 0.0 100544
10:00+10wnw24685 0.0 1006710
13:00+13nw485764 0.0 10061552
16:00+13nw585038 0.0 10071492
19:00+7nw1169100 0.0 101012
22:00+7ne2275100 0.0 101046
1 october, sat
sat101:00+7nnw2385100 0.3 1011105
04:00+6nw4884100 0.3 1011322
07:00+5nw3882100 0.4 1013322
10:00+7nw466367 0.4 1016523
13:00+10nnw34475 0.0 10161185
16:00+11nnw3449100 0.0 10181406
19:00+6e11670 0.0 102010
22:00+5sse227538 0.0 102118
2 october, sun
sun201:00+3se228659 0.0 102113
04:00+3sse2293100 0.0 102139
07:00+4se2496100 0.0 1021103
10:00+9sse457914 0.0 1019433
13:00+13sse246099 0.0 1017983
16:00+13se4566100 0.0 1015568
19:00+9sse3583100 0.0 101594
22:00+9sse2387100 0.0 101476
3 october, mon
mon301:00+8sse2492100 0.0 1012115
04:00+8se2396100 0.1 100985
07:00+8ese1196100 0.0 100821
10:00+9n1294100 0.1 1006136
13:00+11wsw2788100 2.3 1005595
16:00+10wsw2686100 3.1 1004396
19:00+8wsw3880100 0.7 1004307
22:00+6wnw3881100 0.7 1005234